Stations météo

Publicité
Leucate/Semaphore, France (7666): Température de l'air & dewpoint: 03.08.2020 07:00:00 - 09.08.2020 07:00:00 (CEST)Leucate/Semaphore, France (7666): Vitesse du vent & gusts: 03.08.2020 07:00:00 - 09.08.2020 07:00:00 (CEST)Leucate/Semaphore, France (7666): Direction du vent: 03.08.2020 07:00:00 - 09.08.2020 07:00:00 (CEST)Leucate/Semaphore, France (7666): reduced air pressure: 03.08.2020 07:00:00 - 09.08.2020 07:00:00 (CEST)Leucate/Semaphore, France (7666): visibility: 03.08.2020 07:00:00 - 09.08.2020 07:00:00 (CEST)Leucate/Semaphore, France (7666): Quantités de précipitations: 03.08.2020 07:00:00 - 09.08.2020 07:00:00 (CEST)
Date & Time tt [°C] td [°C] ff [km/h] ff [knt] fx [km/h] fx [knt] dd ppp [hPa] vv [km] rr [mm]
09.08.2020 07:00:00 21,6 21,3 4 2 17 9 W 1017,0 - 0,0
09.08.2020 06:00:00 21,8 21,5 8 4 28 15 N 1017,0 - 0,2
09.08.2020 05:00:00 22,1 21,8 18 10 29 16 N 1016,8 - 0,0
09.08.2020 04:00:00 22,3 22,0 21 12 26 14 N 1016,6 - 0,0
09.08.2020 03:00:00 22,4 21,9 12 6 22 12 N 1016,1 - 0,0
09.08.2020 02:00:00 22,4 21,9 16 8 23 12 N 1015,8 12 0,0
09.08.2020 01:00:00 22,5 21,8 12 7 19 11 NNW 1016,0 - 0,0
09.08.2020 00:00:00 22,5 21,7 14 8 23 12 N 1015,9 - 0,0
08.08.2020 23:00:00 22,6 21,6 13 7 17 9 N 1015,8 12 0,0
08.08.2020 22:00:00 23,2 21,6 8 4 16 8 N 1015,9 - 0,0
08.08.2020 21:00:00 23,6 21,5 5 3 15 8 SSW 1015,2 - 0,0
08.08.2020 20:00:00 24,0 22,1 10 6 26 14 S 1015,0 12 0,0
08.08.2020 19:00:00 24,3 21,8 19 10 27 14 S 1015,1 - 0,0
08.08.2020 18:00:00 24,7 21,4 17 9 25 14 S 1015,8 - 0,0
08.08.2020 17:00:00 24,6 21,5 15 8 21 11 S 1016,2 15 0,0
08.08.2020 16:00:00 24,7 21,6 14 8 19 11 S 1016,6 - 0,0
08.08.2020 15:00:00 24,8 21,3 14 7 22 12 S 1017,3 - 0,0
08.08.2020 14:00:00 24,7 21,8 16 9 20 11 SSE 1017,6 15 0,0
08.08.2020 13:00:00 24,6 21,5 16 9 19 11 SSE 1018,1 - 0,0
08.08.2020 12:00:00 23,1 20,8 13 7 16 9 SSE 1018,7 10 0,0
08.08.2020 11:00:00 22,3 20,8 9 5 13 7 SE 1019,1 - 0,0
08.08.2020 10:00:00 22,5 22,0 4 2 8 4 ESE 1019,4 - 0,0
08.08.2020 09:00:00 21,9 21,6 4 2 7 4 NNE 1019,6 - 0,0
08.08.2020 08:00:00 21,5 21,2 5 3 9 5 WNW 1019,5 0,8 0,0
08.08.2020 07:00:00 21,3 21,0 6 3 12 7 N 1019,1 - 0,0
08.08.2020 06:00:00 21,2 20,9 7 4 16 9 N 1018,9 - 0,0
08.08.2020 05:00:00 21,3 21,0 8 5 23 12 N 1018,6 0,1 0,0
08.08.2020 04:00:00 21,5 21,2 8 4 25 13 N 1018,8 - 0,2
08.08.2020 03:00:00 21,7 21,4 11 6 27 14 N 1019,0 - 0,0
08.08.2020 02:00:00 21,5 21,2 15 8 32 17 N 1018,8 0,1 0,0
08.08.2020 01:00:00 21,3 21,0 20 11 36 19 N 1018,3 - 0,0
08.08.2020 00:00:00 21,5 21,0 12 7 25 13 N 1018,0 - 0,0
07.08.2020 23:00:00 21,5 21,0 4 2 16 9 NW 1017,7 0,1 0,0
07.08.2020 22:00:00 21,7 21,2 6 3 10 5 NNE 1017,2 - 0,2
07.08.2020 21:00:00 22,7 22,0 5 3 12 6 WSW 1016,7 - 0,0
07.08.2020 20:00:00 22,6 22,1 6 3 11 6 S 1016,6 0,1 0,0
07.08.2020 19:00:00 22,8 22,1 5 3 11 6 S 1016,8 - 0,0
07.08.2020 18:00:00 22,5 21,7 8 4 18 10 ESE 1017,1 - 0,0
07.08.2020 17:00:00 22,6 21,4 8 5 16 9 E 1017,6 0,1 0,0
07.08.2020 16:00:00 22,4 21,0 8 4 22 12 E 1017,9 - 0,0
07.08.2020 15:00:00 22,2 20,7 9 5 18 10 E 1018,4 - 0,0
07.08.2020 14:00:00 22,2 20,5 10 6 19 11 ENE 1018,4 1,0 0,0
07.08.2020 13:00:00 21,7 20,3 5 3 19 10 ENE 1018,5 - 0,0
07.08.2020 12:00:00 20,7 19,5 9 5 24 13 NNE 1018,6 - 0,0
07.08.2020 11:00:00 20,5 20,0 10 5 27 15 N 1018,6 5 0,0
07.08.2020 10:00:00 20,4 19,9 10 6 25 14 N 1018,2 - 0,0
07.08.2020 09:00:00 20,5 19,8 15 8 25 13 N 1018,1 - 0,0
07.08.2020 08:00:00 20,3 19,3 17 9 26 14 N 1017,6 0,5 0,0
07.08.2020 07:00:00 20,3 18,4 14 8 22 12 N 1017,4 - 0,0
07.08.2020 06:00:00 20,4 18,3 12 7 19 10 NNW 1016,9 - 0,0
07.08.2020 05:00:00 20,1 18,2 12 6 19 11 NNW 1016,8 20 0,0
07.08.2020 04:00:00 19,9 18,2 14 8 22 12 NNW 1016,7 - 0,0
07.08.2020 03:00:00 19,9 18,4 13 7 19 10 N 1016,9 - 0,0
07.08.2020 02:00:00 20,7 19,4 12 6 17 9 N 1017,0 15 0,0
07.08.2020 01:00:00 20,8 19,1 11 6 16 9 N 1017,0 - 0,0
07.08.2020 00:00:00 21,5 19,1 5 3 16 9 NNE 1016,8 - 0,0
06.08.2020 23:00:00 23,6 19,3 10 5 16 9 ENE 1016,1 25 0,0
06.08.2020 22:00:00 24,3 15,8 11 6 21 11 SSW 1015,4 - 0,0
06.08.2020 21:00:00 25,1 13,6 16 9 25 13 SSW 1015,1 - 0,0
06.08.2020 20:00:00 25,7 11,8 18 10 32 18 S 1014,9 30 0,0
06.08.2020 19:00:00 26,5 10,6 24 13 38 20 S 1014,7 - 0,0
06.08.2020 18:00:00 24,8 15,7 22 12 28 15 S 1015,0 - 0,0
06.08.2020 17:00:00 25,5 14,3 18 10 24 13 S 1015,2 30 0,0
06.08.2020 16:00:00 26,0 11,0 18 10 22 12 S 1015,5 - 0,0
06.08.2020 15:00:00 25,0 15,9 11 6 17 9 S 1015,9 - 0,0
06.08.2020 14:00:00 24,5 15,1 10 5 14 7 S 1016,1 - 0,0
06.08.2020 13:00:00 24,1 15,0 7 4 11 6 SSE 1016,4 - 0,0
06.08.2020 12:00:00 23,8 16,1 6 3 10 5 SE 1016,5 - 0,0
06.08.2020 11:00:00 23,2 16,0 5 3 10 5 ESE 1016,4 - 0,0
06.08.2020 10:00:00 24,8 12,1 5 3 9 5 SE 1016,2 - 0,0
06.08.2020 09:00:00 24,5 8,0 3 2 8 4 SSE 1015,8 - 0,0
06.08.2020 08:00:00 21,6 9,5 8 5 13 7 WSW 1015,6 - 0,0
06.08.2020 07:00:00 19,2 7,6 8 4 14 8 NW 1015,4 - 0,0
06.08.2020 06:00:00 19,7 8,1 12 6 15 8 NNW 1015,0 - 0,0
06.08.2020 05:00:00 19,7 9,6 10 5 18 10 NNW 1014,8 - 0,0
06.08.2020 04:00:00 19,8 11,6 15 8 19 10 N 1014,8 - 0,0
06.08.2020 03:00:00 19,3 16,0 13 7 19 11 N 1015,0 - 0,0
06.08.2020 02:00:00 20,8 17,8 14 8 18 10 N 1014,7 30 0,0
06.08.2020 01:00:00 22,2 9,7 6 4 16 8 N 1014,6 - 0,0
06.08.2020 00:00:00 24,9 5,6 10 5 11 6 WSW 1014,3 - 0,0
05.08.2020 23:00:00 25,6 6,7 11 6 12 7 SW 1014,1 - 0,0
05.08.2020 22:00:00 25,6 6,2 10 6 16 9 SSW 1013,6 - 0,0
05.08.2020 21:00:00 25,3 9,6 12 6 20 11 SW 1012,9 - 0,0
05.08.2020 20:00:00 26,4 7,9 14 8 30 16 SSW 1012,5 - 0,0
05.08.2020 19:00:00 25,0 9,3 21 12 31 17 S 1012,2 - 0,0
05.08.2020 18:00:00 24,2 14,9 21 11 29 16 S 1012,2 - 0,0
05.08.2020 17:00:00 26,4 5,3 22 12 33 18 S 1012,4 30 0,0
05.08.2020 16:00:00 24,7 11,6 23 13 29 16 S 1012,8 - 0,0
05.08.2020 15:00:00 24,4 13,3 18 10 26 14 SE 1012,8 - 0,0
05.08.2020 14:00:00 25,1 11,3 19 11 26 14 ESE 1013,1 30 0,0
05.08.2020 13:00:00 27,4 6,7 9 5 24 13 NE 1013,5 - 0,0
05.08.2020 12:00:00 26,0 11,7 10 5 24 13 NNE 1013,7 - 0,0
05.08.2020 11:00:00 26,6 7,6 19 10 32 18 NNW 1013,7 30 0,0
05.08.2020 10:00:00 26,0 7,6 16 9 33 18 NW 1013,9 - 0,0
05.08.2020 09:00:00 23,9 7,9 16 9 37 20 NW 1013,8 - 0,0
05.08.2020 08:00:00 21,6 7,8 13 7 28 15 NW 1013,8 - 0,0
05.08.2020 07:00:00 20,6 6,5 19 10 34 19 WNW 1013,4 - 0,0
05.08.2020 06:00:00 20,4 6,7 20 11 31 17 WNW 1013,4 - 0,0
05.08.2020 05:00:00 20,9 6,4 16 9 34 18 WNW 1013,6 25 0,0
05.08.2020 04:00:00 21,1 6,6 17 9 34 19 WNW 1013,9 - 0,0
05.08.2020 03:00:00 21,7 6,4 18 10 34 18 NW 1013,7 - 0,0
05.08.2020 02:00:00 22,5 6,7 21 11 39 21 NW 1014,1 - 0,0
05.08.2020 01:00:00 23,1 6,4 22 12 44 24 NW 1014,2 - 0,0
05.08.2020 00:00:00 23,4 6,6 23 12 53 29 NW 1014,2 - 0,0
04.08.2020 23:00:00 23,9 6,6 24 13 42 23 NW 1014,1 - 0,0
04.08.2020 22:00:00 24,2 6,5 19 10 40 21 NW 1014,1 - 0,0
04.08.2020 21:00:00 25,3 6,5 20 11 56 31 NW 1013,6 - 0,0
04.08.2020 20:00:00 26,7 7,7 26 14 64 34 NW 1013,2 30 0,0
04.08.2020 19:00:00 27,4 7,3 28 15 67 36 NW 1012,7 - 0,0
04.08.2020 18:00:00 28,0 7,3 29 16 73 39 NW 1012,6 - 0,0
04.08.2020 17:00:00 27,6 7,4 40 22 74 40 NW 1012,6 30 0,0
04.08.2020 16:00:00 27,5 7,9 33 18 72 39 NW 1013,1 - 0,0
04.08.2020 15:00:00 26,8 8,7 40 22 84 45 NW 1012,9 - 0,0
04.08.2020 14:00:00 26,1 8,1 39 21 68 37 NNW 1014,1 - 0,0
04.08.2020 13:00:00 25,5 9,3 34 18 70 38 NW 1014,5 - 0,0
04.08.2020 12:00:00 24,5 10,0 31 17 70 38 NW 1014,9 - 0,0
04.08.2020 11:00:00 23,4 10,8 28 15 57 31 NW 1015,2 30 0,0
04.08.2020 10:00:00 22,0 12,0 23 13 53 29 NW 1016,0 - 0,0
04.08.2020 09:00:00 20,8 12,7 23 12 56 30 NW 1016,0 - 0,0
04.08.2020 08:00:00 19,8 13,0 24 13 49 26 NW 1016,0 30 0,0
04.08.2020 07:00:00 19,4 13,1 23 12 44 24 NW 1015,3 - 0,0
04.08.2020 06:00:00 19,8 13,0 18 10 42 23 NW 1015,0 - 0,0
04.08.2020 05:00:00 20,4 13,1 14 8 32 17 NW 1014,9 25 0,0
04.08.2020 04:00:00 20,8 13,2 17 9 39 21 NW 1015,0 - 0,0
04.08.2020 03:00:00 21,0 13,2 19 10 38 21 NW 1015,2 - 0,0
04.08.2020 02:00:00 21,9 13,0 20 11 39 21 NW 1015,2 15 0,0
04.08.2020 01:00:00 22,2 11,3 18 10 40 22 NW 1015,3 - 0,0
04.08.2020 00:00:00 22,9 11,0 17 9 44 24 NW 1014,8 - 0,0
03.08.2020 23:00:00 23,3 10,4 16 9 40 22 NW 1014,4 - 0,0
03.08.2020 22:00:00 23,7 10,0 20 11 46 25 NW 1013,6 - 0,0
03.08.2020 21:00:00 24,4 9,5 23 12 64 35 NW 1012,7 - 0,0
03.08.2020 20:00:00 25,9 8,4 32 18 80 43 NW 1012,3 20 0,0
03.08.2020 19:00:00 26,7 8,6 37 20 73 40 NW 1011,6 - 0,0
03.08.2020 18:00:00 26,9 7,9 34 18 76 41 NW 1011,5 - 0,0
03.08.2020 17:00:00 27,1 8,5 41 22 90 49 NW 1011,0 20 0,0
03.08.2020 16:00:00 25,6 8,1 36 20 76 41 NW 1011,5 - 0,0
03.08.2020 15:00:00 26,7 9,1 40 22 78 42 NW 1012,5 - 0,0
03.08.2020 14:00:00 25,7 10,3 37 20 74 40 NW 1013,3 - 0,0
03.08.2020 13:00:00 24,8 9,9 38 21 69 37 NW 1013,9 - 0,0
03.08.2020 12:00:00 24,8 10,6 26 14 61 33 NW 1014,1 - 0,0
03.08.2020 11:00:00 22,6 10,1 28 15 54 29 NW 1014,2 30 0,0
03.08.2020 10:00:00 19,7 9,8 26 14 61 33 WNW 1014,9 - 0,0
03.08.2020 09:00:00 19,6 9,8 33 18 66 36 NW 1014,7 - 0,0
03.08.2020 08:00:00 19,4 9,8 28 15 61 33 NW 1014,2 - 0,0
03.08.2020 07:00:00 19,6 10,3 23 12 53 29 NW 1014,1 - 0,0

tt = Température de l'air
td = dewpoint
ff = Vitesse du vent
fx = gusts
dd = Direction du vent
ppp = reduced air pressure
vv = visibility
rr = Quantités de précipitations

stations d'obs. à proximité